Portada
METAR-TAF:

METAR-TAF

Aeroports :

Stuttgart Municipal Airport

Stuttgart, Arkansas, Estats Units d'Amèrica

latitud: 34-36N, longitud: 091-34W, altitud: 68 m

Observació

L'informe es va fer fa 54 minuts, a les 17:56 UTC
Vent 6 kt del Sud
Temperatura 29°C
Humitat 52%
Pressió 1020 hPa
Visibilitat: 16.1 km
Cel clar

METAR: KSGT 211756Z AUTO 18006KT 10SM CLR 29/18 A3013 RMK AO2 SLP201 T02890183 10289 20167 58009

Hora: 13:50 (18:50 UTC)


TAF: manca

Observacions i pronòstics meteorològics de més de 4000 aeroports (METAR i TAF).

Les estacions disponibles són els punts grocs i vermells al mapa.

Posi el ratolí al punt desitjat per veure el nom de l'estació.

Feu clic per veure les observacions i els pronòstics meteorològics.

Per canviar el mapa: feu clic els botons verds amb una creu de color negre per apropar; al botó verd amb un guió per allunyar la imatge; o en les fletxes verdes per a mapes adjacents.


METAR-TAF: